ATLAS 5 CENTAUR DEB, 44667

Orbit data source: Space-Track

ATLAS 5 CENTAUR DEB, 44667 is space debris in HEO originally from a launch on Wed, 17 Oct 2018 UTC launched from the Air Force Eastern Test Range (AFETR). Debris objects in space refer to the collection of defunct objects orbiting the Earth. Examples of debris include non-operational satellites, rocket bodies, and fragments generated from explosions, collisions, or faulty payload assembly.

Loading next visibility...
ATLAS 5 CENTAUR DEB details
Identifier
44667, 2018-079AD
Orbit
HEO
Last TLE update2 days ago
Origin
Flag of USULA (US)
ManufacturerULA Decatur
MissionSpacecraft
Bus & MotorUnknown
MassUnknown
Launch date (UTC)
2018-10-17 (6 years ago)
Launch vehicleUnknown
Launch site
Air Force Eastern Test Range (AFETR)
Object type
Payload
Rocket body
Debris
Shape & HBRUnknown
Radar Cross SectionRCS unknown

Expand to show TLE details & history

TLE from 2 days ago
0 ATLAS 5 CENTAUR DEB
1 44667U 18079AD  24359.87813882 -.00000101  00000-0  00000+0 0  9992
2 44667  12.9049  65.0032 4646998 259.1403  46.9421  1.90840484 38768
Epoch: 2024-12-24T21:04Z
Definitive object data (Epoch: 2024-12-24T21:04:31.194Z)
Latitude0.00002°
Longitude14.95201°
Altitude17,236.135 km
Speed4.386 km/s
True Right ascension04h 19m 50s
True Declination0° 00' 00"
Sunlit
Object was in daylight at TLE epoch
Visualization TLE readout
Latitude2.05995°
Longitude23.80914°
Altitude19,195.926 km
Speed4.081 km/s
Apparent Right ascension04h 11m 10s
Apparent Declination-7° 04' 23"
Sunlit
Object is in daylight
Visualization observer readout
Local Sidereal Time10:26:27
Azimuth266.995° W
Elevation-7.456°
Doppler factor1
Orbital elements
Apogee altitude33,838.357 km
Perigee altitude8,319.685 km
Semi-major axis27,457.158 km
Eccentricity0.4646998
Inclination12.9049°
RAAN65.0032°
Arg. of periapsis259.1403°
True anomaly100.7921°
Mean anomaly46.9421°
Eccentric anomaly72.30819°
Mean motion0.47705 °/min
BSTARUnknown
Orbital period754.65 mins
Loading maneuver chart data...

ATLAS 5 CENTAUR DEB Visibility forecast

Observer location: undefined°, undefined

Span
Click to sort rows by Start time (UTC) header in descending order
Start Az.
Max El. time (UTC)
Max El. Az.
Max El.
End time (UTC)
End Az.
55 mins2024-12-26 20:55:10.428Z233.413° WSW2024-12-26 21:27:10.428Z196.781° SSW13.506°2024-12-26 21:50:10.428Z162.082° S
|